Skip Page Navigation
NASA JPL Caltech
NASA Logo - Jet Propulsion Laboratory + View the NASA Portal
+ Center for Near-Earth Object Studies
JPL Home Earth Solar System Stars & Galaxies Technology
JPL Solar System Dynamics
BODIES ORBITS EPHEMERIDES TOOLS PHYSICAL DATA DISCOVERY FAQ SITE MAP
JPL Small-Body Database Browser
Search: [ help ]  
332424 (2007 RN310)
Classification: Main-belt Asteroid          SPK-ID: 2332424
Ephemeris | Orbit Diagram | Orbital Elements | Mission Design | Physical Parameters | Discovery Circumstances | Close-Approach Data ]

[ show orbit diagram ]
Orbital Elements at Epoch 2459000.5 (2020-May-31.0) TDB
Reference: JPL 20 (heliocentric ecliptic J2000)
 Element Value Uncertainty (1-sigma)   Units 
e .1824269814500767 5.6603e-08  
a 3.13430141571249 4.4758e-08 au
q 2.562520269489359 1.9364e-07 au
i 20.55736215008014 6.8922e-06 deg
node 144.1441683460325 1.4367e-05 deg
peri 241.4730425726568 2.1738e-05 deg
M 81.63874255404873 1.7314e-05 deg
tp 2458540.875287499630
(2019-Feb-26.37528750)
9.4627e-05 TDB
period 2026.793790835123
5.55
4.3414e-05
1.189e-07
d
yr
n .1776204375738023 3.8046e-09 deg/d
Q 3.706082561935622 5.2923e-08 au
  Orbit Determination Parameters
   # obs. used (total)      299  
   data-arc span      6759 days (18.51 yr)  
   first obs. used      2001-07-25  
   last obs. used      2020-01-26  
   planetary ephem.      DE431  
   SB-pert. ephem.      SB431-N16  
   condition code      0  
   norm. resid. RMS      .60059  
   source      ORB  
   producer      Otto Matic  
   solution date      2020-Feb-25 21:08:12  

Additional Information
 Earth MOID = 1.62843 au 
 Jupiter MOID = 1.96453 au 
 T_jup = 3.089 
[ show covariance matrix ]

Ephemeris | Orbit Diagram | Orbital Elements | Mission Design | Physical Parameters | Discovery Circumstances | Close-Approach Data ]

Physical Parameter Table
Parameter Symbol Value Units Sigma Reference Notes
absolute magnitude H 15.2   n/a MPO413326  

332424 (2007 RN310)          Discovered 2007-Sep-05 by CSS at Catalina
Reference: 20120703/Numbers.arcLast Updated: 2012-07-09

[ show close-approach data ]
Ephemeris | Orbit Diagram | Orbital Elements | Mission Design | Physical Parameters | Discovery Circumstances | Close-Approach Data ]
ABOUT SSD CREDITS/AWARDS PRIVACY/COPYRIGHT GLOSSARY LINKS
FirstGov 2020-Sep-27 07:27 UT
(server date/time)  
NASA Home Page
Site Manager:   Ryan S. Park
Webmaster  Alan B. Chamberlin